Regional Weather Roundup
Issued by NWS

Home | Current Version | Previous Version | Text Only | Print | Product List | Glossary Off
Versions: 1 2 3 4 5 6 7 8 9 10 11 12 13 14 15 16 17 18 19 20 21 22 23 24 25 26 27 28 29 30 31 32 33 34 35 36 37 38 39 40 41 42 43 44 45 46 47 48 49 50

000
ASUS43 KFSD 252010
RWRSD

WEATHER ROUNDUP FOR SOUTH DAKOTA
NATIONAL WEATHER SERVICE SIOUX FALLS SD
300 PM CDT MON MAY 25 2015

NOTE: "FAIR" INDICATES FEW OR NO CLOUDS BELOW 12,000 FEET WITH NO
SIGNIFICANT WEATHER AND/OR OBSTRUCTIONS TO VISIBILITY.


SDZ001>005-009-010-012>017-252100-
NORTHWEST AND NORTH CENTRAL SOUTH DAKOTA

CITY           SKY/WX    TMP DP  RH WIND       PRES   REMARKS
BUFFALO          N/A     57  53  86 NE15      29.83R
FAITH            N/A     55  52  89 E18       29.85F
MOBRIDGE       CLOUDY    64  57  78 E8        29.82S
$$

SDZ012>016-024>037-041>051-057-063-072>074-252100-
SOUTHWEST AND SOUTH CENTRAL SOUTH DAKOTA

CITY           SKY/WX    TMP DP  RH WIND       PRES   REMARKS
RAPID CTY ARPT CLOUDY    61  53  75 N17       29.84R
PIERRE         CLOUDY    59  54  83 E18       29.81R
CUSTER         CLOUDY    57  45  64 NE13G20   29.89R
ELLSWORTH AFB  LGT RAIN  57  54  88 N15       29.85  FOG
PHILIP         CLOUDY    64  54  69 E8        29.81R
PINE RIDGE     CLOUDY    60  49  66 E3        29.83S
SPEARFISH      LGT RAIN  54  54 100 NE9       29.91R
WINNER         CLOUDY    63  55  75 NE7       29.80R
$$

SDZ004>011-016>023-039-040-252100-
NORTHEAST SOUTH DAKOTA

CITY           SKY/WX    TMP DP  RH WIND       PRES   REMARKS
ABERDEEN       PTSUNNY   67  52  58 NE20G26   29.79R
WATERTOWN      CLOUDY    59  53  80 NE12      29.76R
BROOKINGS      CLOUDY    63  55  77 NW13      29.78R
SISSETON         N/A     63  55  75 NE24      29.74R
$$

SDZ017-020-022-023-036>040-048>070-252100-
SOUTHEAST SOUTH DAKOTA

CITY           SKY/WX    TMP DP  RH WIND       PRES   REMARKS
SIOUX FALLS    PTSUNNY   71  59  65 VRB5      29.76R
HURON          CLOUDY    63  56  78 NE15      29.79R
CHAMBERLAIN    DRIZZLE   62  56  82 NE7       29.79S
MITCHELL       PTSUNNY   69  58  67 NW8       29.77S
YANKTON        PTSUNNY   73  59  60 S8G16     29.73F
$$

ABBREVIATIONS USED IN REMARKS
   TC - TEMPERATURE IN CELSIUS
  WCI - WIND CHILL INDEX
   HX - HEAT INDEX
  VSB - VISIBILITY




USA.gov is the U.S. government's official web portal to all federal, state and local government web resources and services.